Theta_e
319 320 320 317 317 320 325 327 328 327 325 325 324 323 324 323 323 323 323 322 321 321 321 322 322 321 319 317 315 314 312 312 316 322 324 325 327 322 321 327 328 327 328 327 323 318 314 313 314 313 314 313 313 317 321 325 326 327 328 329 329 329 328 329 329 329 329 329 327 326 327 329 329 328 326 326 327 325 325 325 324 323 324 325 325
318 320 320 317 317 319 323 325 326 326 325 325 323 323 324 323 324 324 324 322 319 319 320 321 320 318 314 311 310 309 309 308 311 317 320 324 330 330 327 327 327 325 326 326 322 316 313 314 313 314 313 313 316 321 325 326 327 328 328 328 328 329 329 329 330 330 329 330 327 326 327 328 328 327 326 326 327 326 325 326 324 323 323 324 324
318 320 320 317 317 318 321 324 324 324 325 324 324 324 324 325 326 325 324 321 319 320 321 321 319 315 311 309 309 308 308 308 313 316 317 324 332 332 329 325 324 323 325 325 319 314 313 313 313 313 313 315 319 324 327 328 328 328 328 327 328 329 329 329 330 330 330 330 327 326 327 328 328 327 326 326 327 327 327 327 326 325 325 324 324
318 319 319 317 316 319 320 322 323 324 325 324 324 324 324 326 326 326 323 319 320 321 322 321 317 312 309 309 309 309 309 309 313 314 314 324 332 332 327 322 320 320 323 321 315 313 313 313 313 313 313 317 322 325 327 329 329 328 328 327 328 329 330 330 331 330 331 330 327 326 327 327 327 328 327 326 326 327 328 328 327 327 327 327 325
319 319 318 317 317 319 320 322 323 324 324 324 324 324 324 326 326 325 322 318 321 323 322 320 317 312 309 309 310 309 310 310 311 312 312 321 330 330 323 319 319 320 320 316 313 313 313 313 313 313 315 320 324 326 328 329 330 329 328 327 327 329 330 330 331 331 331 330 328 327 327 327 328 328 328 327 327 327 328 328 327 328 328 328 328
319 318 318 317 317 319 321 322 322 324 324 324 325 324 325 326 326 324 321 319 321 323 321 320 317 313 310 309 309 309 309 310 310 310 311 318 325 323 319 318 319 318 315 314 313 313 313 313 313 313 316 322 325 327 329 329 330 329 329 328 329 330 330 331 331 331 331 331 329 328 327 327 328 328 328 328 328 328 328 328 328 328 327 328 328
318 318 318 317 318 319 321 322 322 324 323 324 325 324 325 326 326 324 321 320 321 322 321 319 317 314 311 309 309 310 310 310 311 311 314 319 320 318 318 317 317 315 313 313 313 313 313 313 313 312 317 323 325 327 329 329 330 330 329 329 329 330 331 331 331 331 332 331 330 328 327 327 327 328 328 328 329 329 329 328 328 328 328 327 326
318 318 318 317 318 319 321 321 322 323 323 324 324 324 325 326 327 325 321 320 321 321 320 318 317 314 312 310 309 310 310 310 312 314 317 319 317 317 318 316 315 314 313 313 313 313 313 313 312 313 318 322 324 328 329 329 330 330 330 330 330 330 330 331 331 331 331 331 330 329 327 327 327 328 329 328 329 329 329 329 329 328 328 328 327
318 318 318 318 317 319 321 321 322 322 322 323 324 324 325 326 327 325 322 321 320 321 320 318 316 313 312 311 309 310 311 311 312 316 317 317 317 317 316 315 313 313 313 313 313 313 313 313 312 313 318 321 325 329 329 330 331 330 330 330 330 330 330 331 331 331 331 331 331 329 328 327 326 328 329 328 328 329 329 329 329 329 329 329 329
317 318 317 318 318 319 321 321 322 322 322 323 323 324 324 326 326 325 324 322 321 321 319 318 315 312 310 310 309 309 311 312 312 315 317 316 317 317 315 314 313 313 313 313 313 313 313 313 312 314 317 320 325 329 330 330 330 330 330 330 330 330 330 330 332 331 331 332 330 330 328 327 326 328 330 328 327 328 328 328 329 329 329 329 329
318 318 318 318 318 319 320 321 322 321 322 322 323 323 325 326 326 327 326 324 323 321 319 317 314 311 310 310 309 309 310 312 312 315 317 317 316 316 314 314 313 313 313 313 313 313 313 312 312 314 316 320 325 328 329 330 330 330 330 330 330 329 329 330 330 331 331 332 331 330 330 328 327 329 330 329 327 327 328 328 328 328 328 328 328
323 319 318 318 318 319 320 321 321 321 322 322 323 324 325 325 325 327 327 326 323 322 319 316 313 311 310 310 309 309 310 311 312 314 317 317 316 315 313 313 313 313 313 313 313 312 312 313 313 314 316 319 324 326 326 327 329 329 329 329 329 329 330 330 330 331 332 332 331 331 330 329 328 329 329 329 327 327 327 327 327 328 328 328 328
329 323 321 319 318 318 319 321 321 321 321 322 323 324 325 325 326 327 327 326 324 322 318 315 312 310 310 309 309 309 309 311 312 313 316 317 316 314 313 313 313 313 313 313 313 312 313 312 313 314 316 318 320 322 322 324 327 328 328 327 328 329 330 330 331 331 332 332 332 331 331 329 328 329 330 329 328 327 327 326 327 329 329 329 328
335 330 325 322 319 318 319 320 320 320 321 322 322 324 324 324 325 326 327 326 324 321 317 313 311 311 310 309 309 309 309 310 311 312 315 317 316 314 313 313 313 313 313 313 313 312 312 312 313 315 317 318 318 318 318 320 323 324 325 325 327 328 330 330 331 332 332 332 332 331 330 328 327 329 329 329 328 327 327 326 329 330 330 329 329
338 335 330 325 320 318 319 320 320 320 320 321 322 323 324 324 325 325 326 326 324 320 317 313 311 310 309 309 309 309 309 309 312 312 314 317 316 314 313 313 313 313 313 313 313 313 312 312 314 316 317 317 317 317 316 315 317 319 319 320 324 327 330 331 331 332 332 332 332 331 330 328 327 327 327 327 327 327 327 327 329 330 330 330 330
338 336 332 327 320 318 319 320 321 320 320 320 321 322 323 324 325 325 326 326 324 320 316 313 311 310 309 309 309 310 309 309 311 312 313 316 316 314 313 313 313 313 313 313 313 313 312 312 314 317 317 317 317 316 315 314 314 314 313 315 319 324 328 331 331 331 332 332 332 331 330 328 326 327 327 328 328 327 328 328 329 330 330 330 330
337 334 332 326 321 318 319 320 321 320 321 321 322 322 323 324 326 326 326 326 322 318 316 312 310 309 309 309 309 309 310 309 309 312 313 315 317 314 313 313 313 313 313 313 313 313 312 312 315 317 318 317 316 316 315 314 313 313 312 313 317 323 327 330 331 332 333 333 332 332 330 328 327 327 327 328 329 329 329 329 329 329 329 329 329
336 333 330 325 320 319 318 319 320 320 320 321 323 323 324 325 326 326 326 325 321 318 315 311 309 310 310 309 310 310 310 309 309 311 313 314 316 316 312 312 312 313 313 313 313 313 313 312 315 317 318 317 316 315 315 314 313 312 313 315 320 325 329 331 332 333 333 333 333 332 330 328 328 328 328 329 330 330 330 329 329 329 329 329 328
335 332 329 324 320 319 319 319 319 320 320 320 322 324 326 326 326 326 326 324 321 317 313 310 309 310 310 310 310 310 310 310 309 310 312 314 316 316 314 312 312 313 313 313 313 312 312 312 315 317 317 317 316 315 314 313 312 313 316 319 322 327 331 332 333 333 333 333 332 332 330 329 328 328 328 330 331 330 330 329 329 329 329 328 328
334 331 328 325 321 320 318 318 319 319 319 320 322 325 327 327 327 326 325 323 320 316 311 309 308 309 310 310 310 310 310 310 309 309 311 313 315 316 315 313 312 312 312 312 313 312 312 312 314 316 316 316 316 315 315 315 315 318 320 321 325 329 332 332 333 333 333 333 332 332 330 328 328 328 329 329 331 330 329 329 329 329 329 328 327
332 331 329 326 322 320 318 318 319 319 319 319 321 325 328 328 327 326 325 322 319 314 310 308 309 309 310 310 310 311 311 310 310 309 309 311 314 315 316 314 313 312 312 312 312 312 312 312 314 315 316 316 317 318 318 318 320 323 324 326 329 331 333 332 332 332 333 332 332 332 330 329 327 328 329 329 330 330 329 329 329 329 329 328 327
331 329 327 326 323 320 319 318 318 318 319 319 321 325 328 328 327 326 324 322 318 313 309 308 309 309 310 310 310 310 310 310 310 309 309 310 312 314 315 315 313 313 312 312 312 312 312 312 313 315 315 316 319 322 322 322 324 326 328 330 332 333 333 332 331 332 333 332 331 331 330 329 328 328 328 328 329 330 330 329 329 329 328 327 326
332 329 326 324 323 321 319 318 318 318 318 318 320 325 328 328 327 326 325 321 317 311 309 309 309 309 310 310 311 310 311 310 309 309 308 309 310 312 314 315 314 313 312 312 312 312 312 312 313 315 315 315 320 324 324 325 326 329 331 332 333 333 333 332 332 333 332 331 331 331 330 329 329 327 328 328 329 329 330 329 329 330 328 326 326
335 332 329 325 322 322 321 319 318 317 317 318 319 325 328 328 327 327 326 322 316 311 309 309 308 309 310 310 311 311 310 310 310 309 309 308 309 310 312 313 314 314 313 312 312 312 312 312 313 314 314 314 320 325 326 327 328 329 332 333 333 333 332 332 332 332 331 330 330 330 329 328 328 327 328 329 329 329 330 328 329 330 328 326 325
336 335 334 330 325 322 322 320 318 317 317 317 318 323 327 328 327 327 328 323 316 310 309 308 308 309 310 311 311 311 311 311 310 310 309 309 308 309 310 312 313 313 313 313 312 312 312 312 313 314 313 313 319 325 327 328 329 330 331 333 333 333 332 332 332 332 331 330 329 328 327 325 324 326 328 329 329 329 328 328 329 330 327 324 320
337 335 333 332 328 325 322 321 319 317 317 316 317 322 326 327 326 327 327 322 315 310 309 309 308 310 311 312 312 313 313 313 312 311 309 309 309 309 309 310 311 312 313 313 313 313 312 312 313 314 313 312 316 323 328 329 330 331 332 333 333 332 332 333 333 333 332 331 329 327 326 323 320 322 326 327 327 327 327 327 328 328 324 317 310
338 337 334 330 328 326 323 322 320 318 317 316 318 322 325 325 326 326 326 322 315 309 309 309 309 310 311 313 314 315 316 317 317 314 311 310 309 309 309 310 310 311 312 313 313 313 313 312 313 312 313 315 317 322 327 329 330 331 332 333 333 332 332 333 333 333 332 330 329 327 325 323 320 320 323 324 324 325 325 325 325 322 315 307 302
339 338 336 332 327 325 324 322 320 318 316 316 318 322 324 325 326 326 325 322 315 309 309 309 309 311 312 315 318 319 321 324 324 322 317 312 310 310 309 310 309 310 311 312 312 312 312 312 312 312 314 321 324 326 328 331 331 332 332 333 333 332 333 333 333 334 332 330 329 327 325 324 323 322 323 322 322 323 323 323 320 313 305 301 301
339 338 337 335 331 325 322 321 320 318 317 316 319 321 324 325 326 326 324 321 315 310 309 309 310 311 312 317 322 324 325 328 329 328 325 319 317 314 310 309 310 310 310 310 311 311 312 311 311 312 317 324 328 329 331 332 333 333 332 333 333 332 333 333 333 333 332 330 330 328 327 326 324 323 323 323 323 322 320 316 310 303 301 301 301
339 339 337 337 335 327 321 320 319 318 317 317 319 321 324 326 326 326 324 322 315 310 309 309 310 311 312 315 322 326 327 329 330 331 330 328 327 325 318 313 311 310 310 311 311 313 314 314 314 315 319 325 329 331 332 333 334 333 333 332 333 332 333 334 333 332 331 331 330 329 328 326 324 323 322 322 321 318 312 306 302 301 301 301 301
339 339 338 338 337 330 322 319 319 318 317 317 319 322 325 327 327 325 324 322 316 311 309 309 310 311 312 316 323 328 329 330 331 331 332 331 331 331 329 325 319 313 311 312 312 317 320 321 323 322 325 329 331 333 333 334 334 333 332 332 332 332 333 333 333 332 332 331 330 329 327 325 323 321 320 321 317 309 303 301 301 301 301 301 301
340 339 339 338 338 334 326 319 319 318 317 318 321 323 326 328 327 325 324 323 318 312 310 310 310 311 313 318 325 328 329 330 332 333 333 333 332 332 332 332 330 324 319 318 319 323 327 328 330 331 332 332 333 334 334 334 333 332 332 332 332 332 333 333 333 333 332 331 330 328 326 324 322 321 320 317 310 302 301 301 301 300 300 301 301
339 339 339 339 338 337 332 324 319 318 317 318 322 326 328 329 328 327 326 324 320 315 312 310 310 311 315 322 326 328 329 331 332 333 334 334 333 332 332 333 333 332 330 328 327 330 332 333 333 333 333 333 333 333 333 333 332 332 332 332 332 332 332 332 333 333 331 331 329 327 325 323 321 321 319 311 303 301 301 300 300 300 300 300 301
339 339 339 340 339 338 336 329 321 318 318 320 325 328 329 330 329 329 328 326 323 319 315 312 310 311 316 321 325 327 329 330 332 333 333 334 333 332 332 333 333 333 333 333 332 333 333 334 333 333 333 333 333 334 333 332 331 332 332 332 332 332 332 332 332 332 331 329 327 325 323 322 322 320 314 305 300 300 300 300 300 300 300 300 300
339 339 340 340 340 339 338 334 325 318 318 322 327 330 330 330 330 330 330 329 327 324 321 316 313 312 313 317 323 327 328 330 331 332 333 332 333 332 332 333 333 332 333 333 333 333 333 333 333 333 333 333 333 333 332 331 331 332 332 332 332 332 332 332 332 331 330 328 325 324 322 322 321 316 308 301 300 300 300 300 300 299 300 299 299
337 339 340 340 340 339 337 336 328 321 319 324 329 331 331 331 331 331 332 331 330 328 325 321 316 314 314 317 323 326 328 329 330 332 332 332 332 333 332 332 332 332 332 332 332 332 332 332 333 333 333 332 332 333 332 331 331 332 332 332 331 332 332 331 331 329 328 326 324 323 322 322 320 310 301 300 300 300 300 300 299 299 299 299 299
336 338 340 340 340 339 337 336 331 323 321 325 331 332 333 332 332 333 333 333 332 330 326 322 319 317 317 319 322 324 326 327 329 331 332 332 332 333 332 332 332 332 332 331 331 332 332 332 332 332 332 332 332 332 331 331 332 332 331 331 331 331 331 330 329 327 325 324 323 322 321 321 317 305 300 300 300 300 300 299 299 299 299 299 298
337 338 340 340 340 340 338 336 332 325 322 326 331 333 334 333 333 333 333 333 332 330 327 324 322 320 319 320 321 323 324 325 328 332 333 332 332 332 332 331 331 332 332 331 331 332 333 332 332 331 331 331 331 331 331 331 331 332 331 330 330 330 330 328 326 324 323 323 322 321 321 319 310 301 300 300 300 300 299 299 299 299 299 298 298
338 338 339 340 340 340 339 336 333 326 323 327 332 334 335 334 334 333 334 334 333 330 329 328 327 324 323 323 324 324 324 325 329 333 333 332 332 332 331 331 331 332 331 331 331 332 332 332 330 329 329 330 330 331 332 331 331 331 330 330 329 328 328 326 324 323 322 322 320 320 320 312 303 300 300 300 300 300 299 299 299 298 298 298 298
339 338 339 340 340 340 339 337 334 328 325 329 332 334 335 335 335 334 334 334 334 332 331 330 330 328 326 326 327 327 326 327 330 333 333 331 332 332 332 332 331 332 330 330 331 332 332 330 328 328 329 329 330 331 332 332 331 331 329 329 328 326 325 323 323 322 322 321 319 320 317 306 299 300 300 300 300 299 299 299 299 298 298 298 298
340 339 339 340 340 340 339 337 335 330 327 330 333 334 334 335 335 335 335 335 335 333 332 331 330 328 327 328 327 328 329 329 330 332 332 331 332 332 332 332 332 331 330 331 332 332 331 330 330 330 331 331 331 331 332 331 331 330 328 326 325 325 323 322 322 322 322 320 318 320 313 302 299 300 299 299 299 299 299 299 298 298 297 297 297
338 339 339 341 340 341 339 337 335 331 329 331 333 334 334 335 335 335 335 335 335 334 333 331 330 328 328 328 329 330 332 330 329 331 331 331 332 333 332 332 332 332 331 331 332 332 331 331 331 331 331 332 332 331 331 330 330 329 328 326 324 324 322 322 322 321 321 319 318 319 310 300 299 300 299 299 298 298 299 298 298 297 297 297 297
336 338 340 341 341 341 339 336 335 334 331 331 332 334 335 335 336 336 336 336 335 334 333 332 331 330 329 330 331 333 333 330 329 331 331 331 332 332 332 331 331 332 332 331 331 331 331 331 331 331 331 331 331 331 330 330 329 329 328 327 325 323 321 320 321 320 319 318 318 318 307 299 300 300 299 299 298 298 298 298 298 297 297 297 298
336 337 338 339 341 341 341 338 336 335 334 332 332 333 335 336 337 337 337 337 336 335 334 333 333 332 331 332 333 333 332 329 329 330 331 331 331 332 332 331 330 331 331 332 331 331 330 331 331 331 331 331 331 331 330 330 329 329 328 327 325 323 321 322 321 319 318 317 319 318 306 299 302 300 299 299 299 299 298 298 298 297 298 297 298
335 335 337 338 340 341 341 340 337 336 335 334 333 333 334 336 337 338 338 338 336 336 334 333 333 334 333 332 333 333 330 328 329 330 331 330 329 331 332 331 330 330 331 332 332 332 332 332 332 332 332 332 332 331 330 329 329 329 329 328 326 325 324 324 322 319 318 317 319 318 306 300 302 302 301 300 299 299 298 298 298 297 298 298 298
334 334 335 337 339 341 342 342 338 336 336 336 334 333 333 334 337 337 338 338 336 335 334 332 333 333 332 332 333 331 327 328 330 331 331 329 329 331 332 331 330 330 331 332 333 333 332 332 332 332 332 332 332 331 331 329 328 328 328 328 328 326 326 325 322 319 319 317 319 319 308 300 303 304 303 302 300 299 298 298 298 298 298 299 299
333 334 334 337 339 340 342 342 340 338 337 336 335 334 335 334 335 336 336 336 335 334 333 332 332 332 332 331 331 329 327 329 331 331 331 330 331 332 332 331 331 331 331 332 332 332 332 332 333 332 332 331 330 329 330 329 328 327 328 328 328 328 327 326 325 323 321 319 319 320 311 302 303 305 304 303 300 299 299 299 299 299 299 299 299
332 333 334 336 337 339 342 342 341 339 337 337 336 335 335 335 335 335 335 335 333 333 333 333 333 332 332 332 330 329 328 329 331 331 331 330 332 332 331 331 331 331 331 331 332 332 332 333 332 332 330 329 327 326 328 329 329 328 327 327 328 328 328 327 327 326 325 323 320 319 314 304 303 306 305 303 302 301 301 300 301 300 301 301 301
333 334 334 334 336 339 342 343 342 340 338 337 337 336 335 335 335 335 335 334 333 333 333 333 333 333 332 332 331 330 329 329 331 332 330 330 332 333 332 331 331 331 331 331 332 332 332 331 331 330 329 327 325 325 327 328 328 328 327 327 327 327 327 327 327 327 326 324 321 319 316 308 304 305 305 304 302 301 301 301 301 302 302 302 301
334 336 337 337 337 339 342 343 343 341 339 338 337 337 336 335 335 335 335 335 335 334 334 334 333 333 332 331 332 331 330 330 331 332 331 330 331 332 332 331 331 331 331 331 332 331 330 329 328 328 326 324 324 324 325 326 327 327 327 327 327 327 327 327 326 326 326 324 322 320 318 313 308 306 305 304 302 302 302 301 302 302 302 302 302
338 339 339 339 339 339 341 343 343 341 340 338 338 337 336 335 335 335 336 336 336 335 335 335 334 333 333 331 331 331 331 331 331 332 331 330 330 332 332 331 331 331 332 332 331 330 329 328 327 326 324 322 323 324 325 325 326 326 326 326 326 326 326 325 324 325 325 324 323 321 320 317 310 305 305 304 303 302 302 302 302 302 302 302 302
Wind_Speed
22 19 18 18 19 19 18 17 16 15 14 13 12 11 11 10 11 11 11 11 10 10 10 10 10 10 9 8 9 9 9 11 12 13 13 14 13 13 15 17 17 16 15 17 17 17 17 16 16 16 15 14 14 13 12 12 13 13 14 15 16 17 18 19 20 21 23 24 24 23 22 21 21 20 20 20 19 20 20 20 20 19 19 18 16
24 21 19 19 19 19 18 17 17 16 15 14 13 12 11 11 11 11 10 9 8 9 10 10 11 11 10 9 8 9 9 10 11 13 15 17 15 14 15 17 17 16 17 18 18 18 17 16 16 15 15 14 13 12 12 13 13 13 14 15 15 16 17 17 18 20 22 23 23 22 22 21 21 20 20 20 19 19 20 20 21 20 19 18 18
23 22 20 19 19 19 19 18 17 17 15 15 13 13 12 11 11 11 9 8 8 9 10 11 11 11 11 10 10 10 10 11 12 13 18 20 16 14 15 17 17 17 18 18 19 18 17 16 16 15 15 13 12 12 13 13 13 12 13 13 14 15 15 16 17 18 20 22 22 21 22 21 21 20 20 20 19 19 19 19 20 20 19 18 18
22 22 21 20 20 19 19 18 18 17 16 15 14 13 13 12 11 11 9 8 8 9 9 10 11 11 11 11 11 11 11 11 12 14 19 21 17 15 17 17 17 18 19 20 19 18 17 16 16 15 14 12 12 12 12 12 12 11 11 12 13 14 14 15 16 17 19 20 20 21 21 21 20 20 19 20 19 19 17 17 18 18 17 17 17
22 22 21 21 20 20 19 18 18 18 17 16 14 13 13 13 12 10 9 8 9 10 9 10 10 11 10 11 11 11 11 11 12 15 19 20 17 17 18 18 19 20 21 21 19 18 17 16 16 15 13 12 12 11 11 11 11 10 10 11 12 13 13 13 15 15 17 19 19 20 21 20 20 19 18 18 19 18 17 16 16 16 15 15 15
22 22 21 21 21 20 19 18 19 18 17 16 15 13 13 12 12 11 8 8 9 10 9 9 10 10 10 11 12 12 11 12 13 15 18 19 17 18 19 19 21 22 22 21 19 17 16 16 16 15 13 12 11 11 10 10 9 8 8 10 11 12 12 12 13 14 15 17 18 19 20 20 20 19 17 17 18 18 17 16 15 15 14 13 13
22 22 21 21 21 21 19 19 19 18 17 16 15 13 12 12 11 10 9 8 9 10 9 9 9 9 9 10 11 12 12 12 14 16 18 19 19 20 21 21 22 22 21 20 18 17 17 16 16 14 13 12 11 10 9 9 8 7 7 8 9 10 11 11 11 13 14 16 17 18 19 19 19 17 17 17 16 17 16 15 14 14 14 14 14
21 21 21 20 20 21 20 19 19 18 17 15 14 13 12 12 11 10 9 9 9 10 9 9 9 9 9 9 11 12 12 13 15 17 18 20 21 21 22 23 23 22 21 19 18 17 17 16 16 14 13 11 10 9 8 7 6 5 6 7 8 8 9 10 10 11 12 14 16 18 18 18 18 16 16 16 15 15 15 15 14 14 15 16 17
21 21 20 20 21 20 20 19 19 18 16 15 14 13 12 11 11 10 9 9 9 9 9 9 9 8 8 9 10 11 13 14 15 17 19 21 22 22 22 23 23 22 21 19 18 17 16 16 16 14 13 11 10 9 7 6 4 4 4 5 6 8 9 8 8 10 11 13 15 17 17 17 16 15 15 15 15 15 15 15 15 14 14 15 16
21 20 20 20 21 20 20 20 19 18 16 15 14 13 12 11 10 10 9 8 8 8 9 9 9 8 7 8 9 11 12 13 15 16 18 21 23 23 23 24 23 22 20 18 17 17 16 16 15 15 13 11 10 8 7 5 4 3 3 4 5 7 8 8 8 9 10 12 14 15 16 16 15 15 13 14 14 14 14 14 14 13 13 13 14
21 21 21 20 20 20 20 20 19 18 16 15 14 13 12 11 10 10 9 8 8 7 9 10 9 8 7 7 9 10 11 12 14 15 17 20 23 24 23 23 23 21 20 18 17 16 16 16 15 14 12 10 9 8 7 5 4 2 2 3 4 7 8 8 8 9 10 11 13 14 16 15 15 14 12 13 14 13 13 13 13 12 12 12 13
22 22 21 21 20 20 20 20 19 18 16 15 14 13 12 11 10 10 9 8 8 7 8 9 9 9 7 7 7 9 10 11 12 14 16 19 23 24 24 23 22 21 19 18 17 16 16 15 15 13 11 10 9 7 6 5 3 2 1 2 4 6 8 8 8 9 10 11 12 14 15 15 14 13 11 12 13 12 12 13 13 12 12 12 12
22 22 22 21 21 20 20 20 20 18 16 15 14 14 12 11 10 10 9 8 8 8 9 9 9 8 8 7 7 8 9 10 11 13 15 20 23 24 24 23 22 20 19 18 17 16 16 15 13 12 11 9 8 6 5 4 3 1 1 3 4 5 7 7 7 8 9 10 12 14 14 14 13 11 10 11 12 13 13 14 13 12 12 11 11
21 22 22 21 21 21 21 21 20 18 17 16 15 14 13 11 11 10 9 8 8 8 8 8 8 8 8 7 7 7 8 10 11 12 15 19 23 23 24 23 22 21 19 18 17 16 15 14 12 11 10 9 7 5 4 3 3 2 2 3 4 5 6 6 7 8 9 10 12 13 13 13 12 10 10 11 12 13 13 13 11 10 11 10 11
19 21 22 22 23 23 23 22 21 19 17 16 15 14 13 12 11 10 9 8 8 8 8 7 7 7 7 8 8 7 7 9 10 12 15 19 22 23 23 23 22 20 19 18 17 16 15 13 11 11 10 8 6 4 3 3 3 2 2 3 3 4 5 6 7 8 9 10 11 12 12 12 11 10 10 10 11 13 12 11 10 10 10 10 10
20 20 22 23 24 24 24 23 21 20 18 17 15 14 13 12 11 10 10 9 8 8 7 7 7 7 7 8 8 7 7 8 10 11 14 18 21 22 23 22 22 20 19 17 16 15 14 12 11 10 9 7 5 4 4 3 3 2 3 2 3 3 4 6 7 7 8 10 10 11 11 11 11 11 10 10 11 11 10 9 9 9 9 9 9
22 22 22 23 24 25 25 24 23 21 19 17 16 15 13 12 12 11 11 10 9 8 7 7 8 8 7 7 7 8 8 8 9 11 12 17 20 22 22 22 21 20 18 17 16 15 13 12 10 10 8 6 5 4 4 4 3 2 2 3 3 3 4 5 6 7 8 9 9 10 10 11 11 11 11 10 10 10 8 8 8 8 8 8 9
23 23 22 24 25 25 25 25 24 22 20 19 17 16 14 13 13 13 12 10 9 8 7 7 8 9 8 7 7 7 8 8 9 11 12 14 19 21 22 21 21 20 19 17 16 14 13 11 10 9 8 6 5 5 5 5 3 2 2 3 3 3 4 5 6 6 7 8 9 9 10 10 11 11 10 9 8 8 7 8 8 8 8 8 9
22 22 23 24 26 25 26 25 24 23 21 20 18 17 16 15 14 14 13 11 10 9 8 8 9 9 9 8 8 7 8 8 9 10 12 13 17 20 21 21 20 20 18 17 16 14 12 11 10 9 7 6 6 5 5 5 3 1 2 2 3 3 4 5 5 5 6 7 8 9 9 10 11 10 9 8 8 7 7 8 8 8 8 9 9
22 23 24 25 26 25 26 25 24 23 22 21 19 18 17 16 16 15 14 12 11 10 9 9 9 10 9 8 8 8 7 8 9 10 12 13 14 17 19 20 20 19 18 17 16 14 12 11 10 8 7 7 6 6 6 5 3 1 2 2 2 2 3 4 4 4 5 6 7 8 8 9 10 9 9 8 8 7 7 8 8 8 8 8 9
23 24 25 26 26 26 26 25 25 23 23 21 20 19 18 18 17 16 15 14 12 11 10 10 10 10 9 9 8 8 8 7 8 9 11 13 14 15 17 18 19 18 18 17 15 14 13 11 10 9 8 8 7 7 6 5 3 1 1 1 2 3 3 4 4 3 4 5 7 7 7 9 9 8 8 8 7 7 7 7 7 8 8 9 10
24 25 26 26 26 26 26 26 25 24 23 22 21 20 19 19 18 17 16 15 13 12 11 11 11 10 9 9 8 8 8 8 8 9 10 12 14 15 16 17 17 17 17 16 15 14 13 11 10 9 9 8 8 7 7 6 4 1 1 1 2 3 3 4 4 3 3 5 6 7 7 8 8 7 7 7 7 7 7 7 7 7 7 10 11
25 26 27 27 27 27 27 26 25 24 24 23 22 21 21 20 18 17 16 15 13 12 12 12 11 11 10 9 8 8 8 8 8 9 10 11 13 14 15 16 17 17 16 16 15 14 13 11 10 9 9 10 9 8 8 6 4 2 1 1 2 3 3 3 3 3 4 6 6 6 7 7 7 7 7 6 6 7 6 7 8 6 8 10 12
23 24 26 27 28 27 27 27 26 25 24 24 23 22 22 20 18 17 15 14 14 13 13 13 12 12 11 10 9 8 8 8 8 9 9 10 12 13 15 15 16 16 16 15 15 14 13 12 10 10 10 10 10 9 9 7 5 4 3 3 3 3 2 2 2 3 4 6 6 6 7 7 7 6 6 6 5 6 6 8 7 6 10 13 15
21 23 25 27 27 28 28 27 26 25 24 24 24 23 22 20 19 17 16 15 14 14 14 14 13 13 12 11 9 9 8 8 7 7 8 9 10 11 12 13 14 14 15 15 15 14 13 12 11 11 11 11 12 11 10 8 7 5 4 4 4 3 2 2 2 2 4 6 6 7 8 8 7 5 5 5 5 6 7 7 4 7 14 16 17
23 23 24 25 26 27 28 28 26 26 25 25 24 24 23 21 19 18 17 16 15 15 15 15 14 14 13 11 10 9 8 7 6 6 7 7 8 9 10 11 12 12 14 14 14 14 13 12 12 12 12 12 12 12 10 9 8 7 6 5 5 4 3 2 2 2 4 6 7 8 9 9 7 5 4 5 6 7 7 6 7 12 17 17 15
23 22 22 23 25 27 28 28 27 26 26 25 25 24 23 20 19 18 17 16 15 16 16 15 15 14 13 12 10 9 8 7 6 6 6 6 7 8 8 9 10 11 12 13 13 13 12 12 12 12 12 12 12 11 10 9 9 8 7 6 5 4 3 3 3 2 3 5 7 8 8 8 7 5 4 5 6 7 8 10 12 15 15 14 13
22 21 22 23 24 26 28 28 27 27 26 26 26 24 22 21 20 20 18 17 16 16 16 16 15 15 14 13 11 10 9 7 7 6 5 6 6 6 7 7 9 10 11 12 12 12 12 12 12 12 12 11 11 10 10 9 9 8 8 7 6 5 4 3 3 3 3 5 6 7 7 7 7 6 6 6 6 8 10 12 12 12 12 12 11
25 23 22 22 23 26 28 28 28 27 27 27 26 24 22 22 22 21 18 18 17 16 16 16 16 15 14 13 12 10 9 8 7 7 6 6 6 5 6 6 8 9 10 11 11 11 11 11 11 11 11 11 11 10 10 9 8 8 8 7 6 5 5 4 4 3 3 5 6 7 7 8 8 8 8 8 9 9 9 10 10 10 10 10 10
25 23 23 23 22 25 28 29 28 28 28 27 26 24 23 23 22 20 18 17 17 16 17 17 16 16 15 13 11 10 10 9 8 7 6 6 6 6 6 6 7 8 9 10 11 10 10 10 10 10 10 10 10 10 10 9 7 7 7 7 6 6 6 6 5 3 4 6 7 7 8 9 9 10 10 10 10 9 8 8 8 8 9 9 10
26 25 25 23 22 24 27 29 29 29 28 28 26 25 24 24 22 20 19 17 17 17 17 17 17 17 15 13 12 11 11 10 9 7 7 6 6 6 7 7 7 8 9 9 10 10 10 10 9 9 9 10 10 10 9 8 7 7 8 7 6 7 7 6 5 4 5 8 8 8 9 10 10 11 11 11 9 8 7 7 8 8 9 9 10
28 27 24 24 24 25 27 28 29 29 29 29 27 26 25 24 22 20 18 18 18 18 18 18 17 17 16 14 13 13 12 11 10 8 7 7 7 7 7 8 8 9 10 10 10 10 10 10 10 10 9 10 10 9 9 7 7 8 8 7 6 7 7 6 6 5 7 9 9 9 10 11 11 12 12 11 9 7 7 8 8 8 9 10 11
29 26 25 25 25 25 26 28 29 30 30 29 28 27 26 24 22 20 19 18 19 18 18 18 17 17 16 15 14 14 13 12 10 9 7 7 7 7 8 8 8 9 10 11 11 11 10 10 10 10 9 9 9 8 8 8 7 7 8 7 6 7 7 7 6 6 8 8 9 9 11 11 12 13 12 9 8 7 7 8 8 9 10 11 11
29 27 28 27 26 25 26 29 30 31 30 30 29 27 26 24 22 21 20 19 19 18 18 18 17 17 17 15 15 15 14 12 11 9 7 7 7 8 9 9 9 10 10 11 11 11 11 11 10 10 9 8 8 8 8 8 7 7 7 7 6 7 8 7 7 8 8 8 8 10 11 12 13 13 10 8 7 7 7 7 8 9 10 10 10
29 29 29 28 27 25 26 29 31 32 31 31 30 28 27 25 23 22 21 20 19 18 18 18 18 18 17 16 16 16 14 12 11 8 7 8 9 9 10 10 10 10 11 11 11 11 11 11 10 9 9 8 8 8 8 7 6 7 7 7 7 8 8 7 7 7 8 8 9 11 12 13 14 12 9 7 6 6 6 7 8 9 9 9 9
30 30 28 29 29 26 25 28 32 32 33 32 31 29 27 25 23 22 22 21 20 19 18 18 18 18 17 16 16 16 15 12 10 9 8 8 9 10 10 10 10 10 11 11 10 10 10 11 10 9 9 8 8 8 8 7 6 6 7 7 7 8 7 7 7 7 7 9 10 11 12 13 13 11 8 6 6 6 6 7 8 8 8 8 8
30 29 28 29 30 28 25 27 31 33 33 32 31 30 28 26 24 23 23 22 21 19 18 18 18 18 17 17 17 16 14 12 10 9 9 9 9 9 10 10 10 10 11 10 10 10 10 10 10 9 10 10 9 9 8 7 7 7 7 7 7 8 7 7 6 6 7 9 10 11 12 12 11 9 6 6 6 6 6 7 7 7 7 7 7
31 29 28 28 28 28 27 27 30 32 33 33 32 30 29 27 25 24 23 23 21 20 19 19 18 17 17 17 16 15 13 12 10 11 10 10 10 10 10 11 11 11 11 10 10 10 10 10 11 11 11 10 9 8 8 8 7 7 8 8 8 8 7 7 7 7 8 10 10 10 11 10 9 7 6 6 6 6 6 6 7 7 7 7 6
33 31 29 28 28 28 27 27 30 33 34 33 32 31 30 28 27 26 25 24 23 22 21 20 19 18 17 16 14 13 13 13 12 12 11 11 10 10 11 11 11 11 10 10 10 11 11 11 12 12 11 10 9 7 7 8 8 8 8 8 8 8 8 8 7 7 9 10 10 9 9 8 7 6 5 5 6 5 5 6 6 7 7 6 6
35 34 31 30 29 28 28 28 30 33 34 35 34 33 32 31 30 29 28 27 25 24 23 22 20 18 17 15 14 13 13 13 13 12 12 12 11 11 11 12 12 12 10 10 10 11 11 11 12 11 11 10 9 8 8 9 9 9 9 9 9 9 9 8 8 8 10 11 10 8 8 7 6 6 5 5 5 5 5 5 5 6 6 5 5
38 37 35 32 31 29 29 29 30 33 36 37 37 37 36 34 33 33 32 30 28 26 25 24 21 19 18 17 15 14 13 14 14 13 13 13 12 12 11 12 13 12 10 10 10 11 11 11 11 11 10 10 10 10 10 10 10 11 11 11 10 10 9 8 8 9 11 10 9 7 6 5 5 5 5 5 5 5 5 5 5 6 6 5 4
40 39 38 35 33 31 30 30 30 33 37 38 37 38 37 36 34 34 32 31 29 28 26 25 22 20 20 18 16 14 14 15 15 14 13 13 13 12 12 12 12 11 10 10 11 12 12 12 12 11 10 10 10 10 11 12 12 13 11 11 10 10 9 9 10 10 11 10 8 7 5 3 3 4 4 4 5 5 5 5 5 5 5 4 3
40 40 39 37 36 35 33 32 31 34 36 38 38 37 37 35 34 32 31 30 29 28 26 25 23 22 21 19 17 15 16 16 15 14 14 14 13 12 11 12 12 12 11 11 12 13 13 13 13 12 11 11 11 11 13 14 14 14 12 11 11 9 9 11 11 11 10 10 8 7 4 1 2 3 3 3 3 3 4 4 4 3 3 2 3
43 42 41 40 40 39 36 35 34 34 35 37 38 37 35 34 33 31 29 28 27 27 26 26 25 23 21 19 18 17 18 17 16 15 16 15 14 12 12 12 12 11 11 12 13 13 14 14 14 13 12 12 12 13 14 15 16 15 13 11 11 10 9 10 11 10 10 9 9 7 5 2 0 1 2 2 2 2 2 2 2 1 1 2 4
46 45 44 44 43 42 40 37 36 35 34 35 37 37 35 33 33 32 29 29 29 29 29 29 27 25 23 21 19 19 19 18 17 17 17 16 15 13 13 13 12 11 11 12 13 14 14 14 14 14 13 13 13 14 15 16 17 18 16 13 11 9 9 8 8 9 9 9 9 8 6 4 2 2 2 1 1 1 1 2 1 1 2 3 5
48 47 47 46 45 44 42 40 38 36 35 34 35 37 36 35 35 35 34 34 33 33 33 31 28 26 24 22 20 20 20 19 19 18 17 16 15 14 13 13 12 11 11 12 14 15 15 15 15 14 14 14 14 15 16 16 17 19 20 18 16 13 10 8 6 7 7 8 9 9 8 7 5 4 3 2 2 3 3 3 3 3 4 5 7
49 49 49 48 46 45 44 42 40 38 37 35 35 36 37 37 37 36 36 36 35 35 33 30 27 25 24 21 20 20 20 20 19 18 17 16 16 14 14 13 12 10 11 12 14 15 15 16 16 16 15 15 16 17 16 16 18 19 20 21 20 19 16 13 10 8 7 7 9 9 10 9 7 6 5 4 4 5 5 5 4 5 6 7 8
49 51 52 50 48 46 46 44 42 40 39 36 35 36 37 37 37 37 36 36 35 34 32 29 26 25 24 22 21 21 21 21 20 18 17 17 16 15 15 14 12 11 11 12 14 15 16 17 18 17 17 17 17 17 16 17 18 19 20 21 21 20 19 18 15 13 11 10 9 10 11 11 10 8 7 6 7 7 6 6 6 6 7 8 10
50 54 54 51 49 48 47 46 44 43 41 38 37 37 37 37 38 38 37 36 34 33 31 28 26 26 25 23 22 21 21 21 20 19 18 17 17 16 15 15 13 12 12 13 14 16 17 18 19 18 17 17 16 16 16 17 17 18 18 19 20 20 19 18 17 16 15 13 11 10 10 11 12 11 9 9 8 8 7 7 7 7 9 10 11
52 55 54 51 50 49 49 48 46 45 43 40 38 37 37 38 39 39 38 37 35 34 32 29 27 27 26 25 23 22 22 22 21 20 19 18 18 17 16 15 14 12 12 14 15 17 18 18 18 17 16 15 15 16 16 16 16 16 17 17 18 19 18 18 17 16 16 14 13 11 10 11 12 12 12 11 10 10 9 9 9 9 10 11 12
51 53 53 51 51 50 50 50 48 47 44 42 40 39 38 39 40 41 40 38 37 36 33 31 29 29 28 27 24 23 23 23 22 21 20 19 19 18 17 16 15 14 14 15 16 17 18 17 16 15 15 15 15 16 16 16 16 17 17 17 17 17 17 17 16 15 15 15 14 13 11 10 12 13 14 13 12 12 11 10 11 11 11 12 13
Wind_Direction
172 173 175 171 168 166 171 177 177 183 183 174 166 162 155 148 144 141 140 137 139 140 143 141 142 142 146 151 156 165 168 171 168 167 161 146 135 134 145 154 156 155 154 152 148 141 133 126 123 122 124 126 124 118 109 101 94 89 85 82 79 74 68 64 62 61 58 55 53 52 53 54 51 50 49 50 51 50 51 50 50 54 58 60 62
165 167 175 172 169 167 171 178 179 183 181 173 167 164 156 152 147 143 141 136 135 135 133 128 127 126 128 136 146 156 160 161 155 158 155 142 135 136 146 154 154 153 152 150 148 142 134 129 127 128 131 131 125 116 107 100 93 88 85 81 77 73 69 65 62 60 58 55 54 53 52 53 50 48 46 46 48 48 49 47 45 49 53 55 58
164 164 173 173 169 168 172 178 179 182 178 173 168 165 159 155 151 146 141 132 132 129 125 121 119 118 120 126 136 144 149 149 142 144 147 141 138 145 153 153 151 150 151 150 147 141 136 133 132 135 136 133 123 114 106 99 92 88 84 80 76 73 69 67 63 59 57 55 54 52 51 50 48 47 46 45 45 47 48 46 43 44 47 48 51
168 164 170 173 169 169 173 178 179 181 177 173 171 168 162 157 153 148 141 132 130 125 119 116 115 114 114 119 126 134 142 143 137 139 144 143 144 153 154 149 149 151 151 149 146 142 138 136 137 140 139 133 123 114 107 100 94 90 84 79 76 73 69 67 65 60 55 54 53 51 49 47 47 47 46 46 45 47 48 47 46 45 44 43 45
170 165 170 173 169 169 172 178 180 179 176 174 173 170 165 159 155 149 141 135 131 125 118 114 115 112 111 114 118 126 135 137 134 137 143 146 148 150 150 147 148 150 150 148 145 142 140 139 142 144 141 132 123 116 110 103 97 92 84 79 75 71 68 67 66 60 54 52 52 49 46 45 46 45 44 46 47 47 47 46 48 50 49 47 46
171 167 171 173 170 170 173 178 179 178 177 176 174 173 169 162 157 151 142 138 134 125 118 115 113 111 109 110 114 119 129 134 133 136 141 145 146 147 148 147 148 149 149 147 145 144 142 143 147 147 142 134 126 120 114 108 102 96 85 78 74 68 64 63 63 59 53 50 49 47 45 45 45 44 41 43 46 46 46 44 46 48 49 50 52
174 170 172 175 172 170 173 177 177 177 179 178 175 174 171 165 159 152 143 140 135 125 118 116 114 111 109 107 112 116 124 132 133 137 141 142 144 148 148 148 149 149 149 147 146 145 145 148 151 150 144 138 132 127 122 116 109 101 87 76 71 62 56 54 55 56 53 48 47 45 43 43 43 43 40 39 43 45 45 42 43 43 40 40 47
177 173 172 176 175 173 174 176 176 178 180 180 177 174 172 169 161 153 146 143 137 128 122 119 117 114 111 108 111 115 121 130 134 138 141 142 146 149 149 150 151 150 150 150 148 147 148 152 154 153 147 143 138 134 129 125 118 107 89 73 64 54 46 46 51 53 52 47 44 42 42 41 40 43 40 38 40 41 43 41 42 41 37 34 37
177 177 175 178 178 176 175 177 177 178 182 181 178 175 174 171 164 156 149 147 141 133 128 123 121 117 115 112 112 115 120 129 138 141 143 146 148 151 152 153 153 153 153 151 149 149 151 154 156 155 151 148 144 140 138 139 135 116 90 70 56 49 42 44 56 57 51 45 41 40 40 38 37 42 39 35 36 36 39 38 38 40 39 37 36
176 179 179 181 181 179 177 178 179 180 182 182 180 176 175 174 168 160 154 152 145 138 132 127 125 120 116 114 115 116 119 130 142 148 150 152 153 154 155 156 156 155 153 151 150 151 153 155 157 157 154 152 149 148 150 158 157 137 102 72 54 47 45 53 66 61 49 43 41 39 38 36 35 40 37 32 30 31 36 35 36 38 37 38 36
175 180 183 184 184 182 179 180 181 181 182 182 181 178 176 175 172 165 161 157 150 145 136 131 128 122 117 115 117 119 121 128 142 153 157 159 157 156 158 158 158 156 154 153 153 154 155 155 157 158 158 157 155 156 161 174 179 161 123 74 52 47 54 65 69 60 48 44 41 37 35 31 33 37 36 31 27 27 31 31 31 33 34 36 35
177 182 185 188 187 184 181 182 183 183 182 182 182 180 179 176 176 171 167 164 155 150 140 134 132 124 120 119 119 122 123 126 137 151 160 163 160 158 160 161 160 159 157 157 157 157 156 156 158 159 160 162 161 164 172 188 195 176 105 44 38 44 59 68 62 52 46 43 38 34 33 29 32 35 34 28 23 23 24 25 28 31 34 33 32
180 185 189 191 189 186 183 184 185 185 184 183 184 182 182 179 179 176 172 169 160 154 145 140 137 130 127 126 123 125 126 128 133 146 159 163 162 162 162 163 163 162 162 161 161 160 158 158 158 159 160 163 166 170 183 200 212 219 12 12 20 33 51 59 52 46 42 38 32 31 31 29 31 35 36 28 19 16 18 23 28 31 34 31 29
185 188 192 194 191 188 184 185 187 187 187 185 185 185 184 183 182 180 177 173 166 159 150 145 142 136 135 133 130 130 132 133 134 144 156 161 163 165 166 166 166 166 166 166 165 163 161 161 160 159 159 162 166 174 190 210 232 266 331 360 12 25 39 45 41 38 34 31 28 28 28 27 31 34 31 22 13 11 15 22 26 30 34 32 29
194 194 195 196 193 190 186 186 188 189 190 188 187 186 186 186 184 183 182 179 173 167 158 153 149 145 144 139 137 137 139 141 140 145 155 163 166 169 169 169 169 170 170 170 169 167 165 164 162 160 159 161 165 177 199 221 242 281 319 351 12 26 36 36 32 29 27 28 27 27 25 25 29 31 22 13 9 10 15 21 21 23 29 30 29
200 200 199 197 195 192 188 186 188 190 192 191 189 186 186 186 185 186 187 186 181 177 169 162 158 155 152 146 140 140 146 149 149 149 158 166 170 173 174 173 173 173 174 174 174 172 171 168 165 162 162 164 170 189 213 233 248 286 319 349 13 24 33 37 33 28 30 30 27 25 23 22 25 29 23 16 12 11 19 22 18 18 21 25 27
199 202 202 199 197 194 190 188 189 190 193 193 190 187 185 186 186 188 192 192 188 185 178 169 165 162 159 153 144 143 149 155 157 156 160 169 174 176 178 177 177 178 178 179 179 178 176 173 169 167 166 168 181 203 225 243 251 284 322 350 10 20 28 38 35 30 33 29 24 21 19 20 24 28 26 19 14 15 27 27 17 16 18 21 22
199 203 203 201 198 196 194 191 190 191 193 193 191 188 185 185 187 191 194 195 193 189 185 175 170 167 163 159 151 147 150 158 164 164 164 171 177 179 181 182 182 182 183 183 185 184 182 178 174 173 174 177 194 213 231 246 254 287 333 358 9 19 27 30 30 31 28 22 19 18 19 22 27 30 27 20 19 22 34 30 18 17 21 21 18
200 202 204 204 200 198 197 194 193 192 194 194 192 188 185 187 189 193 195 196 196 194 190 180 174 172 169 164 159 154 154 160 166 170 169 172 179 183 184 186 187 187 187 188 189 189 187 183 180 180 182 185 202 218 233 247 257 306 346 13 16 10 21 24 27 29 24 18 16 18 23 26 30 31 25 21 25 29 34 28 19 20 20 15 10
199 202 203 205 203 202 200 198 196 193 195 196 193 190 187 189 191 194 196 198 199 196 191 183 177 175 173 171 165 158 157 162 165 172 174 174 179 185 187 189 191 192 193 193 193 193 192 188 186 188 190 193 204 218 232 249 265 328 357 27 22 354 10 16 16 18 18 17 15 20 26 30 35 30 22 22 26 29 30 26 20 17 15 14 10
196 200 203 205 204 204 203 201 198 195 196 196 195 193 190 192 193 195 197 200 201 196 191 184 180 177 178 178 170 161 158 162 165 171 177 177 178 183 189 192 194 196 197 198 197 197 196 194 192 195 199 199 205 217 232 249 268 324 14 33 355 340 353 358 359 7 12 12 15 24 26 32 35 28 21 19 21 21 20 21 19 15 12 9 3
192 196 200 204 204 204 204 203 200 198 197 197 196 195 195 196 196 197 198 201 201 197 191 183 181 179 181 182 174 163 159 162 165 168 175 180 180 182 188 193 197 199 201 203 202 202 201 199 198 200 205 206 207 217 231 245 261 285 329 319 328 338 347 351 3 17 9 11 21 26 28 35 33 24 19 17 18 11 11 18 14 10 1 353 349
190 192 195 199 203 204 204 205 202 200 198 197 197 196 200 200 199 201 200 202 202 198 192 184 180 180 183 183 175 166 161 162 163 168 174 181 184 185 189 193 198 201 203 205 205 206 206 205 202 205 210 209 208 216 230 240 249 255 263 273 309 333 344 350 6 16 13 23 33 29 29 36 27 17 12 14 12 3 9 9 359 352 348 347 343
191 191 192 195 200 203 205 205 204 202 201 198 197 198 202 203 202 203 202 203 202 197 193 184 180 181 183 182 176 168 166 166 167 172 175 180 185 189 193 196 200 203 205 206 207 209 210 209 207 209 214 212 209 216 228 236 243 249 258 273 304 325 335 346 350 2 17 29 38 32 29 27 19 16 5 2 6 357 356 354 352 348 345 343 337
194 193 193 194 196 201 204 205 203 203 203 199 198 200 203 203 203 204 204 204 201 198 192 186 183 181 182 182 176 171 170 169 169 174 176 179 184 189 195 198 202 204 207 207 208 210 212 212 211 213 216 214 212 216 227 236 245 251 261 276 295 306 315 330 333 349 10 22 33 31 23 13 7 11 359 353 353 342 339 344 349 338 336 334 334
199 198 196 195 195 198 202 204 203 203 204 201 200 202 203 203 204 204 205 204 201 197 193 189 185 182 183 183 178 174 172 169 168 172 172 177 181 187 192 196 201 203 205 207 208 210 213 215 215 216 216 215 215 219 227 237 247 254 262 275 283 282 292 310 317 337 1 15 25 23 15 6 2 1 347 334 330 325 322 321 319 322 327 331 337
205 204 201 199 198 197 200 202 202 203 203 202 201 202 203 202 204 206 206 204 201 198 194 191 187 184 185 185 180 177 175 175 175 171 167 174 179 183 190 196 202 204 206 208 209 211 215 217 217 216 214 216 217 222 230 238 248 255 261 271 275 269 273 284 298 320 355 12 17 16 11 4 358 356 343 324 315 311 309 312 316 321 328 335 345
212 209 204 202 202 202 200 199 200 202 203 202 201 202 201 200 203 206 205 203 201 199 196 193 189 186 188 188 186 182 180 179 179 172 165 173 180 181 188 198 205 208 210 211 212 214 217 219 218 215 213 217 221 228 236 242 250 256 262 267 263 256 258 265 276 300 346 5 7 7 3 356 350 345 340 329 319 311 311 315 320 327 334 343 353
217 212 206 204 205 205 200 197 198 200 203 203 202 201 199 199 204 206 204 202 200 198 197 195 190 190 193 193 191 188 185 183 183 179 174 181 186 183 188 199 207 210 213 215 215 216 219 222 221 217 216 221 227 234 242 248 256 261 262 257 248 248 252 254 264 291 336 350 351 350 348 350 348 343 338 331 328 323 320 323 329 336 344 353 359
220 216 209 205 204 205 201 197 196 199 203 203 202 200 197 200 204 205 203 201 199 199 198 196 193 193 197 198 197 194 190 187 187 186 186 193 197 193 194 203 211 215 217 219 219 219 222 227 228 224 222 227 235 242 247 250 257 264 259 249 242 246 246 247 260 287 322 335 338 338 341 347 348 345 341 335 334 334 332 337 344 349 353 359 1
222 218 212 207 203 203 202 198 197 199 202 203 201 198 197 201 203 202 201 199 199 201 200 199 198 197 199 201 202 200 198 195 192 192 196 204 209 204 202 209 215 217 220 222 220 221 225 231 232 232 230 234 243 249 250 252 260 266 257 247 245 245 243 247 264 285 307 325 333 336 341 346 348 347 344 341 341 344 347 354 357 358 360 0 1
222 220 215 210 205 203 202 200 199 200 202 203 200 197 198 200 200 199 199 198 200 202 202 202 202 201 201 201 203 203 202 200 197 197 202 213 217 214 213 216 220 217 219 221 221 224 231 234 235 239 240 241 245 247 251 254 261 262 248 243 248 246 245 252 264 278 299 320 330 333 338 343 346 346 345 344 347 354 359 0 1 3 4 1 359
222 222 218 215 210 205 203 201 201 202 202 202 199 197 198 199 198 196 197 198 201 204 203 203 205 205 202 200 204 206 204 200 199 200 206 216 221 224 226 227 230 225 222 222 224 229 236 237 235 240 243 243 240 240 247 251 252 246 236 241 247 245 247 252 261 280 305 322 326 329 336 340 343 346 347 349 353 0 4 4 5 5 3 1 358
222 220 219 218 214 209 205 203 203 203 202 201 199 197 198 198 196 194 197 200 202 206 205 204 206 207 206 205 208 210 208 205 204 207 211 220 227 230 231 232 236 234 229 228 228 230 235 236 233 235 240 241 238 237 242 247 243 230 228 236 238 240 247 252 267 292 314 324 323 327 334 337 341 345 347 354 1 4 6 10 9 7 3 359 356
220 219 219 218 216 213 208 204 203 203 202 201 199 198 199 198 196 195 198 201 204 208 208 207 207 208 210 211 213 214 212 209 209 215 219 225 231 232 234 235 237 236 234 233 230 228 231 234 232 230 236 242 242 238 236 238 230 221 222 228 231 239 246 253 271 292 309 316 322 327 332 336 341 345 349 358 4 5 9 12 12 8 1 355 358
219 218 218 218 218 215 210 205 203 203 202 201 199 199 199 199 198 198 200 203 206 209 210 210 210 211 213 213 215 216 214 212 215 221 225 230 233 234 239 240 236 236 235 232 229 228 228 231 232 230 235 240 241 239 237 230 217 214 218 222 230 239 246 259 274 287 300 311 320 325 329 334 340 345 351 357 1 7 12 11 9 3 356 355 4
221 218 217 218 218 217 213 207 204 204 203 201 199 199 200 199 200 200 202 205 207 209 210 211 211 212 213 213 216 217 217 218 223 229 232 237 239 241 245 242 238 236 234 231 230 229 225 225 230 232 234 234 237 242 243 234 219 213 217 225 231 233 245 263 272 280 297 309 316 322 328 334 339 346 350 353 0 8 12 10 3 356 354 358 7
224 220 218 219 219 219 215 209 206 205 204 202 200 200 200 199 201 203 205 207 207 208 210 212 213 213 214 215 218 220 222 225 232 237 239 243 247 249 250 246 239 236 234 233 233 230 224 224 228 231 234 234 236 242 245 239 229 220 220 225 226 227 240 254 262 279 298 308 314 321 330 336 340 345 351 357 2 9 13 9 2 356 357 5 11
226 223 221 219 220 221 218 213 209 206 205 204 202 201 201 200 201 204 207 209 208 208 211 214 215 215 216 217 221 225 228 232 235 239 242 246 250 252 254 250 241 237 237 235 233 231 228 227 227 228 232 235 234 235 239 238 230 226 227 225 220 226 238 246 261 282 298 306 312 322 332 341 348 356 2 1 0 9 14 9 6 4 6 14 17
226 226 223 220 220 221 221 217 211 208 207 206 204 203 203 202 201 203 207 208 208 209 213 215 216 217 217 220 224 227 231 235 236 239 244 248 251 252 253 251 244 241 242 239 235 235 233 230 228 227 229 234 234 229 231 233 227 220 221 221 219 226 236 247 267 285 298 305 310 323 336 349 4 12 11 5 7 14 12 8 9 12 17 22 21
226 226 225 222 221 220 222 220 213 208 208 207 206 205 205 205 204 204 206 207 208 209 212 215 216 216 218 221 224 228 236 240 239 241 245 249 251 252 253 251 248 246 244 237 232 234 234 230 227 226 227 233 237 234 233 233 228 220 213 214 220 231 241 253 271 285 295 300 303 318 333 353 16 21 16 14 19 15 7 6 11 22 31 29 20
227 226 226 224 222 221 222 222 216 210 209 210 210 209 209 209 209 207 206 207 209 210 212 214 215 216 219 223 225 232 241 244 241 241 243 246 249 252 255 254 253 250 244 234 229 232 234 232 229 227 228 233 240 244 244 240 234 231 228 224 226 234 246 259 271 280 287 288 292 308 319 344 20 22 24 27 26 14 4 8 22 37 46 38 16
231 228 228 227 224 223 222 221 217 213 211 211 213 214 213 212 213 213 209 209 212 213 214 216 216 217 220 225 228 235 242 243 242 240 240 244 249 253 256 256 254 251 244 236 234 235 237 238 234 233 235 235 238 246 251 249 240 235 234 233 232 233 242 254 263 270 275 277 282 295 297 303 25 26 38 43 29 9 2 15 37 50 48 21 348
232 230 229 228 226 224 222 219 217 214 213 213 215 216 215 214 215 217 215 214 216 218 218 218 219 219 222 227 230 236 240 241 240 238 238 243 248 252 255 256 255 251 244 240 241 243 244 245 242 241 242 242 245 250 252 251 245 238 232 231 235 234 240 254 261 264 265 266 272 281 274 248 184 65 68 63 35 13 10 41 64 55 348 320 319
233 232 229 228 227 226 224 221 218 215 214 215 216 216 216 214 215 215 215 216 218 221 221 220 218 219 222 226 230 235 238 238 239 237 237 241 246 250 255 256 254 250 244 242 244 248 249 250 250 250 251 254 257 257 255 251 246 241 237 236 240 243 250 261 263 260 261 261 264 266 255 235 209 158 125 103 72 62 92 149 171 224 279 298 308
235 235 231 229 228 228 226 224 221 216 215 216 216 217 216 215 215 213 211 213 216 220 222 221 219 220 222 225 230 233 235 235 238 238 238 241 245 249 254 255 252 247 243 244 247 249 252 253 255 257 260 263 262 257 255 251 244 239 238 240 246 253 260 263 258 259 265 264 261 257 247 229 208 182 157 154 155 140 152 178 201 237 271 291 301
236 235 233 231 230 229 228 226 223 219 217 217 217 218 217 217 217 217 215 215 217 220 223 222 222 223 226 228 229 230 232 235 239 241 241 244 246 248 252 252 247 241 241 245 249 253 257 259 261 264 266 266 263 259 256 252 245 241 240 243 247 252 256 259 260 263 268 267 262 256 246 229 211 195 180 178 179 178 185 201 223 248 273 287 296
236 234 234 232 230 229 228 227 225 222 219 217 218 220 219 218 219 220 220 221 222 224 224 223 222 225 228 230 230 229 232 236 239 241 242 245 246 248 251 250 244 238 240 247 254 258 260 261 263 266 268 265 263 262 258 253 250 248 247 247 248 251 254 259 262 264 265 265 264 257 245 231 216 203 193 190 193 199 205 216 237 259 278 291 301
235 233 233 233 230 229 228 227 226 225 222 218 219 222 222 221 221 222 223 223 225 227 226 225 224 225 227 229 229 230 233 236 238 239 240 243 245 248 250 250 247 241 243 250 257 262 264 265 266 266 266 264 263 260 256 253 253 254 252 251 252 252 254 258 261 263 263 261 259 256 246 231 218 204 196 197 202 208 215 227 246 267 282 294 305
236 232 232 232 230 228 227 226 226 225 223 220 220 222 223 223 224 225 225 223 224 226 225 225 226 226 227 227 228 230 234 237 238 240 241 242 244 247 248 249 250 249 251 255 261 266 269 269 265 262 263 262 259 257 256 255 253 252 251 250 251 251 253 257 262 265 264 260 257 256 253 239 223 204 196 201 207 213 222 235 251 267 279 291 302
234 230 230 230 229 228 227 226 226 226 224 221 221 223 224 224 225 226 226 225 225 225 224 223 224 225 226 226 226 229 233 237 239 242 244 244 245 248 249 250 252 254 257 260 265 270 271 268 262 258 260 259 257 256 257 256 253 250 249 249 251 253 256 261 266 268 265 263 260 260 260 248 224 205 200 204 210 219 228 239 253 266 277 287 295